Back to catalog

VELA 11/12 INTERSTAGE

LostMilitaryHEO
NORAD 60002·PAYLOAD·🇺🇸 United States

Launched Apr 8, 1970 from Cape Canaveral Space Force Station

Loading…

Next Passes (next 24 hours)

TLE

StaleSource: Space-Track

Epoch: Jun 8, 2026, 20:48 UTC

1 60002U 70027D   26159.86688047 -.00000298  00000-0  00000+0 0  9993
2 60002  18.7333  33.0398 7962767 288.7071 359.0840  0.45904703 20944

Track VELA 11/12 INTERSTAGE in real time with AllMySat

Download on the App Store